EW5010 Weather Reports


time (UTC)temp
C
wind
direction
speed
KPH
gust
KPH
rain 1hr
cm
rain 24hr
cm
rain mn
cm
humidity
%
barometer
mb
20260506091754 15 246 3.2 6.4 0.00 0.00 0.00 73 1009.8
20260506091252 15 246 4.8 6.4 0.00 0.00 0.00 74 1010.0
20260506090750 15 320 3.2 4.8 0.00 0.00 0.00 74 1009.7
20260506090247 15 276 1.6 4.8 0.00 0.00 0.00 74 1009.8
20260506085743 15 7 3.2 6.4 0.00 0.00 0.00 74 1009.6
20260506085240 15 89 0.0 4.8 0.00 0.00 0.00 75 1009.6
20260506084736 15 80 0.0 3.2 0.00 0.00 0.00 76 1009.6
20260506084232 15 55 4.8 8.0 0.00 0.00 0.00 76 1009.6
20260506083730 15 71 3.2 6.4 0.00 0.00 0.00 77 1009.4
20260506083228 15 24 1.6 4.8 0.00 0.00 0.00 77 1009.2
20260506082725 15 73 3.2 8.0 0.00 0.00 0.00 77 1009.1
20260506082220 15 0 4.8 6.4 0.00 0.00 0.00 76 1009.2
20260506081718 15 128 1.6 8.0 0.00 0.00 0.00 76 1009.2
20260506081215 15 339 3.2 3.2 0.00 0.00 0.00 76 1009.3
20260506080713 15 93 4.8 8.0 0.00 0.00 0.00 76 1009.3
20260506080209 15 9 4.8 6.4 0.00 0.00 0.00 76 1009.1
20260506073154 15 262 3.2 9.7 0.00 0.00 0.00 75 1009.5
20260506072650 15 42 6.4 11.3 0.00 0.00 0.00 75 1009.5
20260506072148 15 228 1.6 8.0 0.00 0.00 0.00 76 1009.5
20260506071645 16 40 4.8 12.9 0.00 0.00 0.00 76 1009.5
20260506071143 16 355 8.0 9.7 0.00 0.00 0.00 76 1009.5
20260506070640 16 30 9.7 9.7 0.00 0.00 0.00 76 1009.3
20260506070137 16 27 0.0 8.0 0.00 0.00 0.00 76 1009.4
20260506062114 16 24 4.8 8.0 0.00 0.00 0.00 77 1009.3
20260506061610 17 4 6.4 8.0 0.00 0.00 0.00 78 1009.1
20260506061108 17 170 3.2 14.5 0.00 0.00 0.00 78 1009.0
20260506060606 17 6 4.8 11.3 0.00 0.00 0.00 77 1009.1
20260506051035 18 57 6.4 6.4 0.00 0.00 0.00 78 1009.0
20260506050532 18 65 3.2 6.4 0.00 0.00 0.00 77 1008.7
20260506045023 18 36 4.8 8.0 0.00 0.33 0.33 77 1008.4
20260506044521 19 328 0.0 9.7 0.00 0.33 0.33 77 1008.6
20260506044018 19 56 4.8 4.8 0.00 0.33 0.33 77 1008.7
20260506043514 19 34 1.6 3.2 0.00 0.33 0.33 77 1008.5
20260506043013 20 120 0.0 4.8 0.00 0.33 0.33 77 1008.3
20260506042512 20 256 1.6 3.2 0.00 0.33 0.33 77 1008.4
20260506042009 20 230 3.2 6.4 0.00 0.33 0.33 77 1008.4
20260506041508 20 76 4.8 8.0 0.00 0.33 0.33 77 1008.3
20260506041004 20 51 6.4 11.3 0.00 0.33 0.33 76 1008.2
20260506040502 20 83 3.2 9.7 0.00 0.33 0.33 77 1008.0
20260506035957 21 79 3.2 4.8 0.00 0.33 0.33 77 1008.1
20260506035455 21 46 4.8 4.8 0.00 0.33 0.33 77 1008.2
20260506034951 21 163 1.6 4.8 0.00 0.33 0.33 77 1008.1
20260506034449 21 245 0.0 6.4 0.00 0.33 0.33 77 1007.9
20260506033946 21 79 3.2 3.2 0.00 0.33 0.33 77 1007.8
20260506033443 21 325 3.2 6.4 0.00 0.33 0.33 77 1008.0
20260506032939 21 76 0.0 4.8 0.00 0.33 0.33 76 1007.9
20260506032437 21 76 0.0 4.8 0.00 0.33 0.33 76 1007.7
20260506031933 21 81 3.2 6.4 0.00 0.33 0.33 75 1007.6
20260506031431 21 109 3.2 9.7 0.00 0.33 0.33 76 1007.9
20260506030929 22 256 4.8 9.7 0.00 0.33 0.33 76 1007.5
20260506030426 22 79 0.0 6.4 0.00 0.33 0.33 76 1007.4
20260506025923 22 141 1.6 4.8 0.00 0.33 0.33 76 1007.0
20260506025420 22 167 0.0 8.0 0.00 0.33 0.33 76 1007.0
20260506024916 22 41 0.0 4.8 0.00 0.33 0.33 75 1006.9
20260506024414 22 229 3.2 4.8 0.00 0.33 0.33 76 1006.7
20260506023909 22 326 0.0 3.2 0.00 0.33 0.33 77 1006.3
20260506023407 22 183 1.6 3.2 0.00 0.33 0.33 77 1006.3
20260506022903 22 102 0.0 3.2 0.00 0.33 0.33 77 1006.0
20260506022401 22 54 3.2 3.2 0.00 0.33 0.33 76 1005.8
20260506021859 22 202 0.0 4.8 0.00 0.33 0.33 76 1005.8
20260506021355 22 173 0.0 3.2 0.00 0.33 0.33 77 1006.0
20260506020852 22 276 3.2 3.2 0.00 0.33 0.33 77 1006.0
20260506020350 22 339 3.2 3.2 0.00 0.33 0.33 78 1005.6
20260506015847 22 80 1.6 4.8 0.00 0.33 0.33 79 1005.8
20260506015345 22 124 0.0 3.2 0.00 0.33 0.33 79 1005.9
20260506014841 22 135 0.0 3.2 0.00 0.33 0.33 80 1005.5
20260506014338 23 209 0.0 1.6 0.00 0.33 0.33 81 1005.5
20260506013835 23 285 0.0 3.2 0.00 0.33 0.33 81 1005.3
20260506013332 23 252 0.0 3.2 0.00 0.33 0.33 81 1005.6
20260506012829 23 124 1.6 3.2 0.00 0.33 0.33 83 1005.7
20260506012326 23 44 3.2 3.2 0.00 0.33 0.33 85 1005.6
20260506011823 25 43 0.0 3.2 0.00 0.33 0.33 90 1005.2
20260506011319 25 55 0.0 3.2 0.00 0.33 0.33 91 1005.0
20260506010817 25 266 1.6 3.2 0.00 0.33 0.33 91 1005.0
20260506010315 25 37 0.0 0.0 0.00 0.33 0.33 91 1004.6
20260506005812 25 296 3.2 3.2 0.00 0.33 0.33 91 1004.8
20260506005308 25 114 0.0 1.6 0.00 0.33 0.33 90 1004.9
20260506004805 25 255 1.6 4.8 0.00 0.33 0.33 90 1004.7
20260506004302 25 296 1.6 3.2 0.05 0.33 0.33 90 1005.0
20260506003758 25 140 0.0 3.2 0.13 0.33 0.33 89 1004.9
20260506003254 25 275 3.2 4.8 0.48 0.30 0.30 88 1004.7
20260506002751 25 259 0.0 3.2 1.50 0.30 0.30 86 1004.7
20260506002247 25 149 3.2 4.8 1.32 0.23 0.23 83 1004.9
20260506001743 26 197 3.2 8.0 0.30 0.05 0.05 82 1005.0
20260506001241 26 207 1.6 8.0 0.00 0.00 0.00 80 1004.3
20260506000737 26 169 6.4 14.5 0.00 0.00 0.00 79 1004.0
20260506000235 26 166 11.3 17.7 0.00 0.00 0.00 78 1004.0
20260505235732 26 150 16.1 20.9 0.00 0.00 0.00 78 1003.8
20260505235230 26 147 17.7 25.7 0.00 0.00 0.00 78 1003.5
20260505234726 26 149 20.9 25.7 0.00 0.00 0.00 78 1003.7
20260505234224 26 146 17.7 20.9 0.00 0.00 0.00 78 1003.6
20260505233720 26 152 14.5 19.3 0.00 0.00 0.00 77 1003.8
20260505233218 26 148 12.9 19.3 0.00 0.00 0.00 77 1003.9
20260505232715 26 147 16.1 20.9 0.00 0.00 0.00 77 1003.7
20260505232212 26 144 17.7 20.9 0.00 0.00 0.00 77 1003.6
20260505231709 26 149 14.5 20.9 0.00 0.00 0.00 77 1003.7
20260505231208 27 146 16.1 19.3 0.00 0.00 0.00 76 1003.7
20260505230706 26 149 14.5 19.3 0.00 0.00 0.00 76 1003.6
20260505230202 26 151 14.5 16.1 0.00 0.00 0.00 76 1003.7
20260505225658 27 143 14.5 16.1 0.00 0.00 0.00 76 1003.6
20260505225155 27 148 11.3 16.1 0.00 0.00 0.00 76 1003.6
20260505224651 27 150 9.7 12.9 0.00 0.00 0.00 75 1003.4
20260505224149 27 151 4.8 12.9 0.00 0.00 0.00 76 1003.5
20260505223646 26 150 14.5 17.7 0.00 0.00 0.00 76 1003.3
20260505223142 26 146 14.5 17.7 0.00 0.00 0.00 77 1003.2
20260505222638 26 151 16.1 19.3 0.00 0.00 0.00 76 1003.3
20260505222135 27 145 16.1 19.3 0.00 0.00 0.00 74 1003.6
20260505221632 27 150 16.1 19.3 0.00 0.00 0.00 74 1003.3
20260505221128 27 148 12.9 17.7 0.00 0.00 0.00 76 1003.3
20260505220626 27 151 14.5 17.7 0.00 0.00 0.00 76 1003.2
20260505220123 27 152 11.3 17.7 0.00 0.00 0.00 76 1003.2
20260505215621 27 150 16.1 17.7 0.00 0.00 0.00 75 1003.3
20260505215119 27 151 11.3 16.1 0.00 0.00 0.00 74 1003.4
20260505214617 27 160 8.0 14.5 0.00 0.00 0.00 74 1003.4
20260505214114 27 145 9.7 17.7 0.00 0.00 0.00 74 1003.6
20260505213611 27 142 12.9 17.7 0.00 0.00 0.00 75 1003.5
20260505213107 27 148 16.1 17.7 0.00 0.00 0.00 73 1003.4
20260505212603 27 161 8.0 16.1 0.00 0.00 0.00 75 1003.7
20260505212102 27 146 12.9 20.9 0.00 0.00 0.00 74 1003.7
20260505211558 27 149 14.5 17.7 0.00 0.00 0.00 75 1003.6
20260505211055 27 150 14.5 19.3 0.00 0.00 0.00 74 1003.6
20260505210551 27 150 11.3 17.7 0.00 0.00 0.00 72 1003.8
20260505210049 27 149 12.9 17.7 0.00 0.00 0.00 71 1003.7
20260505205546 28 145 14.5 16.1 0.00 0.00 0.00 70 1003.9
20260505205044 28 148 4.8 14.5 0.00 0.00 0.00 71 1003.8
20260505204541 28 151 9.7 11.3 0.00 0.00 0.00 68 1004.0
20260505204038 29 155 8.0 11.3 0.00 0.00 0.00 66 1004.0
20260505203535 28 175 9.7 11.3 0.00 0.00 0.00 68 1004.0
20260505203032 27 149 12.9 16.1 0.00 0.00 0.00 73 1004.0
20260505202528 27 150 11.3 16.1 0.00 0.00 0.00 73 1004.1
20260505202024 28 158 11.3 16.1 0.00 0.00 0.00 70 1004.2
20260505201521 27 153 8.0 14.5 0.00 0.00 0.00 73 1004.1
20260505201018 27 152 19.3 20.9 0.00 0.00 0.00 74 1004.2
20260505200517 28 151 6.4 16.1 0.00 0.00 0.00 70 1004.2
20260505200013 27 163 8.0 16.1 0.00 0.00 0.00 72 1004.3
20260505195509 27 154 12.9 19.3 0.00 0.00 0.00 72 1004.3
20260505195007 27 144 16.1 16.1 0.00 0.00 0.00 70 1004.3
20260505194504 27 151 6.4 11.3 0.00 0.00 0.00 71 1004.3
20260505194004 27 182 6.4 16.1 0.00 0.00 0.00 71 1004.5
20260505193502 27 147 12.9 20.9 0.00 0.00 0.00 72 1004.2
20260505192959 26 174 8.0 16.1 0.00 0.00 0.00 74 1004.3
20260505192457 26 148 14.5 19.3 0.00 0.00 0.00 74 1004.3
20260505191954 26 155 8.0 20.9 0.00 0.00 0.00 75 1004.5
20260505191453 26 145 12.9 20.9 0.00 0.00 0.00 76 1004.5
20260505190950 26 147 16.1 20.9 0.00 0.00 0.00 74 1004.7
20260505190444 26 149 8.0 14.5 0.00 0.00 0.00 74 1004.6
20260505185940 26 155 16.1 19.3 0.00 0.00 0.00 74 1004.6
20260505185438 26 146 9.7 9.7 0.00 0.00 0.00 73 1004.8
20260505184934 26 177 4.8 12.9 0.00 0.00 0.00 74 1004.7
20260505184431 26 161 4.8 16.1 0.00 0.00 0.00 75 1004.8
20260505183927 26 158 8.0 14.5 0.00 0.00 0.00 75 1004.8
20260505183425 26 156 9.7 17.7 0.00 0.00 0.00 75 1004.7
20260505182921 26 151 11.3 17.7 0.00 0.00 0.00 73 1004.9
20260505182418 26 166 9.7 16.1 0.00 0.00 0.00 74 1004.8
20260505181914 26 149 12.9 14.5 0.00 0.00 0.00 72 1005.1
20260505181412 26 160 9.7 17.7 0.00 0.00 0.00 72 1005.0
20260505180908 26 157 3.2 14.5 0.00 0.00 0.00 72 1005.1
20260505180405 26 151 8.0 17.7 0.00 0.00 0.00 72 1004.9
20260505175902 26 156 4.8 19.3 0.00 0.00 0.00 72 1004.8
20260505175358 27 159 9.7 17.7 0.00 0.00 0.00 70 1004.8
20260505174854 27 198 8.0 12.9 0.00 0.00 0.00 72 1005.1
20260505174352 26 139 8.0 9.7 0.00 0.00 0.00 72 1005.1
20260505173848 26 180 6.4 16.1 0.00 0.00 0.00 74 1005.0
20260505173344 26 144 12.9 17.7 0.00 0.00 0.00 75 1005.0
20260505172842 26 151 6.4 14.5 0.00 0.00 0.00 74 1004.9
20260505172339 26 151 4.8 16.1 0.00 0.00 0.00 74 1005.0
20260505171839 26 155 11.3 14.5 0.00 0.00 0.00 75 1005.0
20260505171336 25 174 4.8 12.9 0.00 0.00 0.00 75 1005.1
20260505170832 26 154 12.9 17.7 0.00 0.00 0.00 73 1004.9
20260505170329 26 159 8.0 20.9 0.00 0.00 0.00 74 1005.1
20260505165825 26 194 3.2 14.5 0.00 0.00 0.00 74 1005.4
20260505165320 25 146 6.4 14.5 0.00 0.00 0.00 74 1005.2
20260505164816 25 179 3.2 17.7 0.00 0.00 0.00 75 1005.0
20260505164313 26 200 11.3 20.9 0.00 0.00 0.00 73 1005.2
20260505163812 25 180 9.7 22.5 0.00 0.00 0.00 75 1005.2
20260505163310 25 167 6.4 17.7 0.00 0.00 0.00 75 1005.1
20260505162808 25 147 11.3 19.3 0.00 0.00 0.00 74 1005.1
20260505162306 25 154 11.3 14.5 0.00 0.00 0.00 75 1004.8
20260505161801 25 164 9.7 16.1 0.00 0.00 0.00 76 1004.8
20260505161258 25 160 9.7 16.1 0.00 0.00 0.00 77 1004.7
20260505160755 25 169 14.5 20.9 0.00 0.00 0.00 77 1004.9
20260505160253 24 157 11.3 16.1 0.00 0.00 0.00 78 1004.7
20260505153232 24 179 3.2 12.9 0.00 0.00 0.00 79 1004.9
20260505152729 24 148 14.5 17.7 0.00 0.00 0.00 79 1005.1
20260505152226 23 161 4.8 17.7 0.00 0.00 0.00 80 1005.1
20260505151725 23 189 8.0 9.7 0.00 0.00 0.00 80 1005.3
20260505151223 23 158 6.4 17.7 0.00 0.00 0.00 80 1005.0
20260505150719 23 202 12.9 17.7 0.00 0.00 0.00 81 1005.0
20260505150217 23 182 9.7 14.5 0.00 0.00 0.00 80 1005.1
20260505140650 22 154 16.1 17.7 0.00 0.00 0.00 84 1004.9
20260505140147 22 154 4.8 20.9 0.00 0.00 0.00 84 1004.7
20260505130112 22 163 11.3 22.5 0.00 0.00 0.00 85 1004.6
20260505124601 22 197 11.3 17.7 0.00 0.00 0.00 85 1004.7
20260505124057 22 172 11.3 16.1 0.00 0.00 0.00 85 1004.3
20260505123553 22 154 12.9 17.7 0.00 0.00 0.00 85 1004.2
20260505123050 22 176 8.0 17.7 0.00 0.00 0.00 85 1004.1
20260505122547 22 173 6.4 22.5 0.00 0.00 0.00 84 1004.2
20260505122044 22 143 3.2 14.5 0.00 0.00 0.00 85 1004.3
20260505121540 22 164 4.8 20.9 0.00 0.00 0.00 85 1004.2
20260505121037 22 158 4.8 16.1 0.00 0.00 0.00 85 1003.9
20260505120534 22 199 6.4 16.1 0.00 0.00 0.00 85 1004.0
20260505120029 22 149 4.8 16.1 0.00 0.00 0.00 85 1004.1
20260505115524 21 151 9.7 14.5 0.00 0.00 0.00 85 1003.9
20260505115022 22 132 4.8 16.1 0.00 0.00 0.00 85 1004.0
20260505114519 22 168 6.4 16.1 0.00 0.00 0.00 85 1003.8
20260505114015 21 171 4.8 16.1 0.00 0.00 0.00 85 1004.0
20260505113512 21 175 6.4 12.9 0.00 0.00 0.00 85 1004.0
20260505113008 21 184 6.4 22.5 0.00 0.00 0.00 85 1003.9
20260505112504 21 197 8.0 20.9 0.00 0.00 0.00 85 1003.9
20260505112002 21 198 4.8 11.3 0.00 0.00 0.00 85 1004.0
20260505111456 21 151 11.3 27.4 0.00 0.00 0.00 85 1004.0
20260505110952 21 178 6.4 14.5 0.00 0.00 0.00 85 1003.8
20260505110449 21 155 3.2 14.5 0.00 0.00 0.00 85 1004.0
20260505101921 21 163 8.0 22.5 0.00 0.00 0.00 85 1004.0
20260505101421 21 147 11.3 24.1 0.00 0.00 0.00 85 1004.1
20260505100916 21 168 8.0 20.9 0.00 0.00 0.00 85 1004.0
20260505100414 21 160 12.9 20.9 0.00 0.00 0.00 85 1003.9
20260505095909 21 152 14.5 16.1 0.00 0.00 0.00 85 1004.0
20260505095406 21 150 11.3 19.3 0.00 0.00 0.00 85 1004.1
20260505094902 22 146 14.5 19.3 0.00 0.00 0.00 85 1004.1
20260505094400 22 136 6.4 20.9 0.00 0.00 0.00 84 1004.5
20260505093855 22 178 8.0 16.1 0.00 0.00 0.00 84 1004.2
20260505093353 22 161 12.9 16.1 0.00 0.00 0.00 84 1004.5
20260505092850 21 165 4.8 16.1 0.00 0.00 0.00 84 1004.5
20260505092348 22 201 6.4 16.1 0.00 0.00 0.00 84 1004.5